This is the latest recevied weather packets stored in our database for station/object KC5TIL-3. If no packets are shown the sender has not sent any weather packets the latest 10 day(s).
| Time | Temp. | Humidity | Pressure | Rain* | Wind** | Luminosity | Snow |
|---|---|---|---|---|---|---|---|
| 1777544567 | 17.22° C | 58% | 1011.8 hPa | 0 mm | 1.79 m/s, 23° | - | - |
| 1777544270 | 17.22° C | 58% | 1010.8 hPa | 0 mm | 2.68 m/s, 32° | - | - |
| 1777543971 | 17.22° C | 58% | 1010.8 hPa | 0 mm | 2.68 m/s, 268° | - | - |
| 1777543670 | 17.22° C | 58% | 1010.8 hPa | 0 mm | 2.24 m/s, 325° | - | - |
| 1777543372 | 17.22° C | 58% | 1011.8 hPa | 0 mm | 3.13 m/s, 42° | - | - |
| 1777543068 | 17.22° C | 57% | 1011.8 hPa | 0 mm | 1.79 m/s, 43° | - | - |
| 1777542460 | 17.22° C | 57% | 1011.8 hPa | 0 mm | 1.79 m/s, 347° | - | - |
| 1777542161 | 17.22° C | 57% | 1011.8 hPa | 0 mm | 2.24 m/s, 63° | - | - |
| 1777541859 | 17.22° C | 57% | 1010.8 hPa | 0 mm | 1.79 m/s, 333° | - | - |
| 1777541254 | 17.22° C | 57% | 1010.8 hPa | 0 mm | 1.79 m/s, 96° | - | - |
| 1777540952 | 17.22° C | 57% | 1011.8 hPa | 0 mm | 0 m/s | - | - |
| 1777540356 | 17.22° C | 56% | 1011.8 hPa | 0 mm | 1.79 m/s, 47° | - | - |
| 1777540055 | 17.22° C | 56% | 1011.8 hPa | 0 mm | 1.79 m/s, 51° | - | - |
| 1777539458 | 17.22° C | 55% | 1011.8 hPa | 0 mm | 2.68 m/s, 297° | - | - |
| 1777538560 | 17.22° C | 55% | 1011.8 hPa | 0 mm | 3.13 m/s, 56° | - | - |
| 1777537658 | 17.22° C | 55% | 1010.8 hPa | 0 mm | 2.24 m/s, 69° | - | - |
| 1777537358 | 17.22° C | 54% | 1011.8 hPa | 0 mm | 2.24 m/s, 338° | - | - |
| 1777537060 | 17.22° C | 54% | 1011.8 hPa | 0 mm | 1.79 m/s, 31° | - | - |
| 1777536761 | 17.22° C | 53% | 1011.8 hPa | 0 mm | 2.24 m/s, 62° | - | - |
| 1777536456 | 17.22° C | 53% | 1011.8 hPa | 0 mm | 1.79 m/s, 19° | - | - |
| 1777535554 | 17.22° C | 52% | 1010.8 hPa | 0 mm | 2.24 m/s, 64° | - | - |
| 1777535255 | 17.22° C | 52% | 1010.8 hPa | 0 mm | 1.79 m/s, 304° | - | - |
| 1777534956 | 17.22° C | 52% | 1010.8 hPa | 0 mm | 1.79 m/s, 63° | - | - |
| 1777534656 | 17.22° C | 51% | 1010.8 hPa | 0 mm | 1.79 m/s, 322° | - | - |
| 1777534353 | 17.22° C | 51% | 1010.8 hPa | 0 mm | 2.24 m/s, 22° | - | - |
* Rain latest hour (hover to see other rain measurements)
** Current wind speed in m/s (hover to see current wind gust speed)